Вернуться в каталог

THORAD AGENA D DEB

АктивенSSO
NORAD 4655·DEBRIS·🇺🇸 United States

Запущен Apr 8, 1970 с Vandenberg Space Force Base

Loading…

Ближайшие Пролёты (ближайшие 24 часа)

TLE

СвежийSource: Space-Track

Эпоха: Sep 14, 2026, 06:35 UTC

1 04655U 70025AP  26257.27447479  .00000135  00000-0  20894-3 0  9995
2 04655  99.9775  10.2699 0053569 281.0806  78.4317 13.69383788810014

Отслеживайте THORAD AGENA D DEB в реальном времени с AllMySat

Download on the App Store